When you browse on this site, cookies collect data to enhance your experience and personalize the content and advertising you see.
Visit our Privacy Policy to learn more. By continuing to use the site, you agree to this use of cookies and data.
EN

Hourly Weather Kosteevka

Today, 20 September, Sunday

Time Temperature Precipitation Wind Pressure Humidity
00:00 +7°C° 0 mm 3 mps 744 mmHg 94%
01:00 +7°C° 0 mm 3 mps 744 mmHg 95%
02:00 +7°C° 0 mm 3 mps 744 mmHg 97%
03:00 +5°C° 0 mm 3 mps 744 mmHg 97%
04:00 +5°C° 0 mm 3 mps 745 mmHg 97%
05:00 +5°C° 0 mm 3 mps 745 mmHg 97%
06:00 +6°C° 0 mm 4 mps 745 mmHg 91%
07:00 +7°C° 0 mm 4 mps 746 mmHg 86%
08:00 +8°C° 0 mm 5 mps 746 mmHg 80%
09:00 +9°C° 0 mm 5 mps 746 mmHg 72%
10:00 +10°C° 0 mm 5 mps 747 mmHg 65%
11:00 +13°C° 0 mm 5 mps 747 mmHg 57%
12:00 +13°C° 0 mm 5 mps 747 mmHg 56%
13:00 +14°C° 0 mm 5 mps 747 mmHg 54%
14:00 +14°C° 0 mm 5 mps 747 mmHg 53%
15:00 +13°C° 0 mm 4 mps 747 mmHg 58%
16:00 +12°C° 0 mm 3 mps 747 mmHg 62%
17:00 +12°C° 0 mm 2 mps 747 mmHg 67%
18:00 +10°C° 0 mm 2 mps 748 mmHg 71%
19:00 +9°C° 0 mm 2 mps 748 mmHg 75%
20:00 +8°C° 0 mm 2 mps 748 mmHg 79%
21:00 +7°C° 0 mm 2 mps 748 mmHg 82%
22:00 +7°C° 0 mm 2 mps 748 mmHg 85%
23:00 +6°C° 0 mm 2 mps 748 mmHg 87%

Tomorrow, 21 September, Monday

Time Temperature Precipitation Wind Pressure Humidity
00:00 +6°C° 0 mm 2 mps 749 mmHg 88%
01:00 +6°C° 0 mm 2 mps 749 mmHg 90%
02:00 +6°C° 0 mm 2 mps 749 mmHg 91%
03:00 +5°C° 0 mm 3 mps 749 mmHg 92%
04:00 +4°C° 0 mm 3 mps 749 mmHg 92%
05:00 +4°C° 0 mm 3 mps 748 mmHg 93%
06:00 +7°C° 0 mm 3 mps 749 mmHg 87%
07:00 +7°C° 0 mm 4 mps 749 mmHg 81%
08:00 +8°C° 0 mm 4 mps 749 mmHg 76%
09:00 +10°C° 0 mm 5 mps 749 mmHg 71%
10:00 +13°C° 0 mm 5 mps 748 mmHg 66%
11:00 +14°C° 0 mm 5 mps 748 mmHg 61%
12:00 +15°C° 0 mm 5 mps 748 mmHg 59%
13:00 +15°C° 0 mm 5 mps 748 mmHg 58%
14:00 +16°C° 0 mm 5 mps 748 mmHg 57%
15:00 +15°C° 0 mm 4 mps 748 mmHg 61%
16:00 +14°C° 0 mm 4 mps 747 mmHg 66%
17:00 +13°C° 0 mm 3 mps 747 mmHg 71%
18:00 +12°C° 0 mm 3 mps 747 mmHg 75%
19:00 +11°C° 0 mm 3 mps 747 mmHg 79%
20:00 +9°C° 0 mm 3 mps 748 mmHg 83%
21:00 +9°C° 0 mm 3 mps 748 mmHg 84%
22:00 +9°C° 0 mm 3 mps 748 mmHg 85%
23:00 +9°C° 0 mm 3 mps 748 mmHg 86%

Day after tomorrow, 22 September, Tuesday

Time Temperature Precipitation Wind Pressure Humidity
00:00 +9°C° 0 mm 3 mps 748 mmHg 87%
01:00 +8°C° 0 mm 3 mps 748 mmHg 88%
02:00 +8°C° 0 mm 3 mps 748 mmHg 89%
03:00 +8°C° 0 mm 3 mps 748 mmHg 90%
04:00 +8°C° 0 mm 3 mps 748 mmHg 91%
05:00 +8°C° 0 mm 3 mps 748 mmHg 92%
06:00 +8°C° 0 mm 4 mps 748 mmHg 84%
07:00 +11°C° 0 mm 4 mps 748 mmHg 77%
08:00 +12°C° 0 mm 4 mps 748 mmHg 70%
09:00 +14°C° 0 mm 5 mps 748 mmHg 65%
10:00 +16°C° 0 mm 5 mps 748 mmHg 60%
11:00 +19°C° 0 mm 5 mps 748 mmHg 56%
12:00 +19°C° 0 mm 5 mps 748 mmHg 54%
13:00 +20°C° 0 mm 5 mps 747 mmHg 52%
14:00 +21°C° 0 mm 6 mps 747 mmHg 50%
15:00 +19°C° 0 mm 5 mps 747 mmHg 56%
16:00 +18°C° 0 mm 4 mps 747 mmHg 61%
17:00 +17°C° 0 mm 3 mps 746 mmHg 67%
18:00 +16°C° 0 mm 3 mps 747 mmHg 69%
19:00 +14°C° 0 mm 3 mps 747 mmHg 71%
20:00 +13°C° 0 mm 3 mps 747 mmHg 73%
21:00 +12°C° 0 mm 3 mps 747 mmHg 73%
22:00 +12°C° 0 mm 3 mps 747 mmHg 73%
23:00 +12°C° 0 mm 3 mps 746 mmHg 72%

23 September, Wednesday

Time Temperature Precipitation Wind Pressure Humidity
00:00 +11°C° 0 mm 3 mps 747 mmHg 72%
01:00 +11°C° 0 mm 3 mps 747 mmHg 71%
02:00 +11°C° 0 mm 3 mps 747 mmHg 71%
03:00 +11°C° 0 mm 3 mps 747 mmHg 71%
04:00 +10°C° 0 mm 3 mps 747 mmHg 71%
05:00 +10°C° 0 mm 3 mps 747 mmHg 71%
06:00 +12°C° 0 mm 3 mps 747 mmHg 67%
07:00 +13°C° 0 mm 3 mps 747 mmHg 64%
08:00 +14°C° 0 mm 3 mps 747 mmHg 60%
09:00 +17°C° 0 mm 3 mps 747 mmHg 54%
10:00 +19°C° 0 mm 3 mps 747 mmHg 49%
11:00 +21°C° 0 mm 3 mps 747 mmHg 43%
12:00 +22°C° 0 mm 3 mps 747 mmHg 42%
13:00 +22°C° 0 mm 3 mps 747 mmHg 41%
14:00 +24°C° 0 mm 3 mps 746 mmHg 40%
15:00 +21°C° 0 mm 2 mps 746 mmHg 45%
16:00 +20°C° 0 mm 2 mps 746 mmHg 50%
17:00 +18°C° 0 mm 2 mps 745 mmHg 54%
18:00 +17°C° 0 mm 2 mps 746 mmHg 55%
19:00 +16°C° 0 mm 2 mps 746 mmHg 56%
20:00 +15°C° 0 mm 2 mps 746 mmHg 56%
21:00 +15°C° 0 mm 2 mps 746 mmHg 57%
22:00 +14°C° 0 mm 2 mps 746 mmHg 57%
23:00 +14°C° 0 mm 2 mps 746 mmHg 58%

24 September, Thursday

Time Temperature Precipitation Wind Pressure Humidity
00:00 +13°C° 0 mm 2 mps 746 mmHg 58%
01:00 +13°C° 0 mm 2 mps 746 mmHg 59%
02:00 +13°C° 0 mm 2 mps 746 mmHg 60%
03:00 +11°C° 0 mm 3 mps 746 mmHg 60%
04:00 +11°C° 0 mm 3 mps 746 mmHg 60%
05:00 +11°C° 0 mm 3 mps 746 mmHg 60%
06:00 +12°C° 0 mm 3 mps 746 mmHg 58%
07:00 +13°C° 0 mm 3 mps 746 mmHg 56%
08:00 +16°C° 0 mm 3 mps 746 mmHg 54%
09:00 +17°C° 0 mm 3 mps 746 mmHg 51%
10:00 +19°C° 0 mm 3 mps 746 mmHg 48%
11:00 +20°C° 0 mm 3 mps 746 mmHg 45%
12:00 +21°C° 0 mm 3 mps 746 mmHg 43%
13:00 +22°C° 0 mm 3 mps 746 mmHg 41%
14:00 +23°C° 0 mm 4 mps 746 mmHg 38%
15:00 +21°C° 0 mm 3 mps 745 mmHg 43%
16:00 +20°C° 0 mm 3 mps 745 mmHg 47%
17:00 +18°C° 0 mm 2 mps 745 mmHg 52%
18:00 +17°C° 0 mm 3 mps 745 mmHg 53%
19:00 +16°C° 0 mm 3 mps 745 mmHg 54%
20:00 +14°C° 0 mm 3 mps 745 mmHg 54%
21:00 +14°C° 0 mm 3 mps 745 mmHg 53%
22:00 +14°C° 0 mm 3 mps 745 mmHg 52%
23:00 +14°C° 0 mm 3 mps 745 mmHg 51%

25 September, Friday

Time Temperature Precipitation Wind Pressure Humidity
00:00 +14°C° 0 mm 3 mps 745 mmHg 51%
01:00 +13°C° 0 mm 3 mps 745 mmHg 50%
02:00 +13°C° 0 mm 3 mps 745 mmHg 50%
03:00 +13°C° 0 mm 3 mps 745 mmHg 50%
04:00 +13°C° 0 mm 3 mps 745 mmHg 49%
05:00 +12°C° 0 mm 3 mps 745 mmHg 49%
06:00 +13°C° 0 mm 3 mps 745 mmHg 49%
07:00 +14°C° 0 mm 3 mps 745 mmHg 49%
08:00 +16°C° 0 mm 3 mps 745 mmHg 48%
09:00 +18°C° 0 mm 4 mps 745 mmHg 46%
10:00 +20°C° 0 mm 4 mps 745 mmHg 43%
11:00 +22°C° 0 mm 4 mps 745 mmHg 40%
12:00 +22°C° 0 mm 4 mps 745 mmHg 40%
13:00 +23°C° 0 mm 4 mps 744 mmHg 40%
14:00 +23°C° 0 mm 5 mps 744 mmHg 40%
15:00 +22°C° 0 mm 4 mps 744 mmHg 45%
16:00 +21°C° 0 mm 4 mps 743 mmHg 50%
17:00 +19°C° 0 mm 4 mps 743 mmHg 55%
18:00 +19°C° 0 mm 4 mps 743 mmHg 54%
19:00 +18°C° 0 mm 4 mps 743 mmHg 53%
20:00 +16°C° 0 mm 5 mps 743 mmHg 52%
21:00 +16°C° 0 mm 5 mps 743 mmHg 51%
22:00 +16°C° 0 mm 5 mps 743 mmHg 50%
23:00 +16°C° 0 mm 5 mps 743 mmHg 49%
Show more